Location: Unspecified
(0.0000°N, 0.0000°E)
Time: 17:46:33
(UTC+00:00)

Vanguard 2 - Pass Details

Date: 24 April 2026
Orbit: 553 x 2895 km, 32.9° (Epoch: 17 May)

Event Time Altitude Azimuth Distance (km) Brightness Sun altitude
Exits shadow 04:34:37 19° 229° (SW) 4,591 10.9 -20.4°
Maximum altitude 04:46:53 78° 146° (SE) 2,088 9.7 -17.4°
Drops below altitude 10° 04:56:42 10° 60° (ENE) 3,581 12.2 -15.0°
Sets 04:59:08 0° 59° (ENE) 4,300 12.9 -14.4°
